Back to catalog

STARLINK-34615

AliveCommunicationsVLEO
NORAD 66321·PAYLOAD·🇺🇸 United States

Launched Nov 6, 2025 from Cape Canaveral Space Force Station

Loading…

Next Passes (next 24 hours)

TLE

FreshSource: CelesTrak SupGP

Epoch: Sep 15, 2026, 03:18 UTC

1 66321C 25253C   26258.13798611 -.00057975  00000+0 -21003-2 0  2584
2 66321  43.0015 222.5390 0001297 273.4030 268.0463 15.27600184    18

Track STARLINK-34615 in real time with AllMySat

Download on the App Store